Probability
2 3 3 2 1 1 4 5 4 3 2 2 1 0 0 0 0 0 0 0 0 0 0 0 0 0 0 0 0 0 0 0 0 0 0 0 0 0 0 0 0 0 0
2 2 2 1 0 1 3 5 4 3 2 1 0 0 0 0 0 1 1 0 0 0 0 0 0 0 0 0 0 0 0 0 0 0 0 0 0 0 0 0 0 0 0
2 1 1 0 0 1 3 5 5 4 2 0 0 0 0 0 0 1 1 0 0 0 0 0 0 0 0 0 0 0 0 0 0 0 0 0 0 0 0 0 0 0 0
1 0 0 0 1 1 2 4 4 3 1 1 1 1 0 0 0 1 1 0 0 0 0 0 0 0 0 0 0 0 0 0 0 0 0 0 0 1 1 0 0 0 0
0 0 0 1 2 2 3 3 3 3 1 1 2 2 0 0 0 0 0 0 0 0 0 0 0 0 0 0 0 0 0 0 0 0 0 0 1 2 2 1 0 0 0
0 0 0 1 2 2 3 2 2 2 1 1 1 1 0 0 0 0 0 0 0 1 1 1 0 0 0 0 0 0 1 1 1 0 0 0 1 3 5 3 1 0 0
0 0 0 1 2 2 2 1 1 1 0 0 0 0 0 0 0 1 1 0 1 2 2 2 1 0 0 0 0 0 1 1 1 0 0 0 1 4 5 4 2 0 0
0 0 0 1 1 1 1 0 0 0 0 0 0 0 0 1 1 2 2 2 2 3 3 3 2 1 0 0 0 1 2 1 0 0 0 0 1 4 4 4 2 1 0
1 0 0 0 0 0 0 0 0 0 0 0 0 0 1 2 3 4 4 3 2 2 3 3 3 2 1 0 0 1 2 2 1 0 0 0 1 3 4 4 3 1 0
2 1 0 0 0 0 0 1 1 1 0 0 0 1 3 3 3 4 4 3 2 2 2 3 3 4 3 2 1 2 3 2 1 0 0 0 1 3 4 4 3 1 0
3 2 1 0 0 1 1 1 2 1 0 0 1 3 4 2 2 3 4 5 6 4 3 4 5 6 6 4 3 3 2 2 1 0 0 1 2 2 3 4 3 2 1
3 3 1 1 1 1 0 1 2 1 0 0 1 2 2 2 2 2 3 8 10 7 6 6 7 7 7 5 3 2 1 2 3 2 2 5 6 3 3 3 3 2 2
3 3 3 2 2 1 0 0 0 1 1 1 1 2 1 1 2 2 3 6 7 7 7 7 6 5 5 4 2 1 1 2 2 2 4 8 9 6 4 4 3 4 4
2 3 3 4 4 3 1 1 1 1 2 2 2 1 1 1 3 3 2 2 3 5 5 5 4 3 3 3 3 2 2 2 1 1 5 9 9 8 6 5 6 7 8
1 1 3 6 7 5 3 3 2 2 2 3 3 2 1 2 4 3 2 2 3 4 5 4 4 3 3 3 3 3 3 2 2 2 5 8 9 8 7 5 6 8 9
2 2 3 6 8 7 5 4 3 2 2 2 4 4 2 3 4 4 4 5 6 6 7 6 5 4 3 3 3 4 4 4 4 4 5 7 8 9 9 8 6 6 5
7 6 5 5 6 7 6 3 2 1 1 3 5 7 6 5 6 7 7 7 8 9 9 8 7 5 4 3 4 5 6 7 7 6 6 7 8 10 13 14 11 7 4
11 10 6 3 5 7 6 4 1 0 1 4 6 8 8 8 9 10 9 8 8 9 8 8 7 6 5 4 4 6 7 8 9 9 9 9 9 11 15 18 16 12 8
13 11 7 4 5 7 7 6 4 2 2 5 9 11 11 11 11 11 10 9 7 7 8 8 7 7 6 5 4 5 7 8 9 10 10 10 10 12 15 17 18 17 15
17 15 11 7 7 10 11 10 10 8 7 9 13 16 15 13 13 12 10 9 8 9 10 11 10 9 8 6 4 5 6 7 8 9 10 11 11 13 15 16 17 17 17
24 23 19 15 14 15 16 16 17 16 14 14 17 20 19 17 15 13 11 10 11 13 14 15 15 14 12 11 10 8 7 6 5 6 7 9 11 12 14 15 16 16 15
32 30 26 24 22 21 21 22 22 19 17 18 21 24 22 18 16 15 13 14 15 16 18 19 20 19 16 14 15 12 8 4 4 3 4 5 7 8 9 12 15 16 15
34 32 31 31 29 26 25 24 23 19 18 20 24 28 25 19 17 17 16 15 16 18 20 21 21 21 19 15 14 14 9 5 3 3 2 2 5 6 5 7 11 15 16
30 32 38 40 38 34 29 25 23 19 17 19 23 27 26 21 18 18 16 15 14 15 17 18 19 20 19 16 15 14 10 6 4 3 2 2 3 5 4 3 6 11 14
27 32 42 48 46 40 31 26 24 20 17 17 19 21 22 22 20 18 17 16 14 12 13 16 16 15 16 16 17 14 11 7 5 4 3 2 2 3 3 4 6 10 13
28 32 42 51 51 43 33 25 24 22 19 16 15 17 20 22 21 19 18 18 15 12 13 15 15 13 13 15 17 15 11 7 6 5 4 3 2 2 3 5 9 12 13
Wind_Speed
8 9 10 12 12 13 13 13 13 13 13 13 12 12 12 12 11 11 11 11 10 10 9 9 8 7 7 7 7 7 7 7 8 8 9 9 9 9 8 8 9 8 12
11 11 13 13 13 13 13 13 13 13 13 13 12 12 12 11 10 10 10 10 9 9 9 8 7 7 7 6 6 7 6 6 6 6 7 7 7 7 7 8 8 8 11
12 11 12 12 13 13 13 13 13 13 13 12 12 12 11 11 10 10 9 9 9 9 8 8 7 7 6 6 6 6 5 4 4 5 5 4 6 7 8 9 10 10 10
13 11 12 12 12 12 13 13 13 12 12 12 12 11 11 10 10 9 8 8 8 8 8 7 7 7 6 6 5 4 4 3 3 4 3 3 5 9 10 10 10 9 9
14 13 12 12 11 12 12 12 12 12 12 11 11 10 10 9 9 8 8 7 7 7 7 7 6 6 5 5 4 3 2 2 3 4 1 4 5 9 10 9 9 9 8
15 14 13 13 12 13 13 12 11 11 11 11 10 9 9 8 8 8 7 7 7 6 6 6 5 5 5 4 3 2 2 3 5 3 2 5 5 9 10 9 9 9 8
15 14 13 14 14 14 13 12 11 11 10 10 10 8 7 7 7 7 7 7 6 6 5 5 5 4 4 3 2 2 3 5 6 2 3 4 6 10 9 9 9 8 8
14 14 13 14 14 13 12 11 10 10 9 9 8 8 7 6 6 6 6 6 6 5 5 4 4 3 3 3 3 4 5 7 4 1 4 5 9 10 10 9 9 8 7
13 13 13 12 12 12 12 11 10 9 8 8 7 7 6 6 6 6 5 6 6 5 5 5 4 4 4 4 5 6 6 7 6 2 4 5 9 10 9 9 8 8 7
10 11 12 12 11 11 10 10 10 9 8 7 7 7 7 7 7 8 7 7 6 6 6 5 5 5 5 6 7 7 7 7 5 2 3 6 11 10 10 9 8 8 7
9 8 10 11 10 10 10 11 10 9 8 8 7 9 7 5 5 6 8 9 9 8 7 7 6 6 6 7 9 9 7 4 3 2 3 9 11 10 9 8 8 7 7
9 9 7 8 9 8 7 8 6 7 7 6 4 5 4 4 3 4 8 10 10 9 8 8 8 8 7 5 8 9 4 5 3 2 5 11 10 10 9 8 8 7 7
10 8 9 8 7 6 5 5 3 3 4 4 5 4 3 3 3 3 3 5 6 8 5 5 7 5 5 3 3 4 4 3 2 3 6 11 10 9 8 8 7 7 7
9 8 8 8 6 4 4 3 3 2 3 3 3 3 2 1 1 2 2 3 3 3 3 3 3 4 4 3 3 2 2 1 1 3 6 10 9 9 9 8 8 7 7
9 8 8 7 6 4 2 1 3 2 2 3 3 2 2 1 1 1 1 1 2 2 2 2 2 2 2 2 2 2 1 0 2 2 4 9 10 9 9 9 8 8 8
8 7 7 7 7 4 3 1 1 2 2 2 3 3 2 1 1 1 1 0 1 1 2 2 3 2 2 2 2 2 2 1 3 4 4 6 9 9 9 9 8 8 8
8 7 6 7 7 4 3 3 2 2 2 1 2 3 2 1 2 1 2 2 1 1 2 2 2 1 2 2 2 2 2 1 2 3 4 4 5 8 9 9 9 8 8
8 7 5 6 8 5 3 2 1 1 1 1 2 2 2 1 2 1 2 2 2 2 1 1 1 1 1 1 1 1 1 2 2 3 3 4 4 5 8 10 9 8 8
8 7 4 3 6 5 4 2 2 1 1 1 1 2 2 2 2 1 1 1 2 1 1 1 1 1 1 1 2 2 1 2 2 3 3 4 4 5 5 8 10 9 8
9 7 6 4 4 5 4 2 1 1 1 1 1 1 2 2 2 2 2 2 2 1 1 1 0 1 1 1 2 1 1 1 1 2 3 3 4 5 5 6 6 6 8
10 9 7 6 5 3 3 2 2 2 1 1 1 2 2 2 2 2 1 2 1 1 1 1 1 1 1 1 1 1 1 2 2 2 2 2 2 3 4 6 4 4 5
11 9 8 7 6 5 3 2 2 2 2 2 1 2 2 1 1 2 2 2 1 1 1 1 1 1 2 1 1 0 0 1 2 2 2 3 2 2 2 4 4 4 4
11 10 9 8 7 6 4 3 2 2 2 2 2 2 2 1 2 1 1 1 1 1 1 2 1 2 2 1 1 1 1 1 1 1 2 1 1 2 2 2 3 3 4
11 10 8 7 6 6 5 4 4 3 2 2 2 2 2 2 2 2 1 1 1 0 1 2 2 2 1 1 1 1 1 1 1 1 1 1 1 1 2 2 2 3 3
11 11 9 8 6 6 5 5 4 3 2 1 2 2 2 2 2 2 2 2 1 1 1 1 1 1 1 2 1 1 1 1 2 1 1 1 1 1 2 2 2 2 3
9 9 9 8 7 6 6 5 5 4 3 2 2 2 2 2 2 2 2 2 1 1 1 1 1 2 1 2 2 1 1 1 2 1 2 2 2 2 2 1 1 2 2
Wind_Direction
99 105 109 107 107 110 112 111 111 112 114 115 112 110 108 108 108 106 106 106 106 107 110 109 107 102 100 93 91 88 87 88 90 93 96 98 101 102 103 109 112 107 112
107 107 108 106 106 108 109 109 111 112 114 114 112 111 109 109 110 111 109 108 107 107 109 112 111 108 106 102 100 99 100 102 107 112 114 109 111 112 108 100 99 109 114
107 110 110 106 106 108 111 111 109 110 112 111 110 110 108 107 109 114 114 112 111 111 112 113 112 111 111 110 110 112 119 129 138 147 149 133 122 123 115 108 110 115 119
113 112 106 108 109 111 113 111 110 111 111 111 110 111 112 112 111 110 112 115 115 115 113 112 113 115 116 119 124 129 142 159 182 200 205 140 124 126 124 120 118 122 125
108 106 107 109 113 118 118 115 114 114 115 116 115 115 114 115 114 113 113 116 117 115 115 116 117 121 123 125 132 149 179 218 240 246 205 108 106 128 130 129 129 131 133
112 110 109 108 111 119 121 120 118 118 118 118 117 117 116 117 118 119 120 121 123 125 126 124 122 121 123 131 153 187 227 257 271 249 139 120 119 133 134 137 138 139 138
114 112 116 113 111 114 116 120 121 119 120 120 121 120 122 125 126 128 127 129 131 132 130 128 130 132 138 152 189 230 257 271 268 274 108 109 125 138 143 144 140 142 143
116 118 121 122 121 120 120 121 122 123 124 127 130 133 137 139 139 142 143 142 141 140 140 142 148 159 172 191 218 241 257 275 267 196 129 118 133 138 144 148 146 148 150
122 125 131 135 133 130 130 130 128 131 135 138 145 151 151 152 157 158 164 161 157 154 157 164 174 187 200 214 228 243 257 273 280 224 139 125 139 142 148 150 154 157 158
122 128 136 138 140 142 141 142 142 143 148 156 159 166 169 177 181 179 179 176 172 172 178 186 193 205 219 230 239 248 256 270 259 211 134 141 148 152 156 157 162 168 170
123 132 136 138 145 144 146 147 155 154 164 174 179 184 188 195 191 185 180 172 178 184 190 195 205 219 227 234 240 246 252 248 243 160 132 143 152 156 160 166 170 176 182
135 136 137 138 142 146 141 143 167 167 168 186 178 179 194 198 200 168 158 174 182 190 197 203 212 223 231 229 227 230 236 233 222 156 135 151 156 161 166 171 174 183 188
145 145 141 135 135 137 132 148 162 158 161 178 173 177 190 189 166 148 157 172 188 196 204 197 210 224 227 232 231 211 222 233 168 132 141 152 156 163 169 172 178 186 194
145 144 138 136 132 125 121 134 160 166 159 159 161 176 167 168 166 154 168 171 190 193 196 201 218 224 234 232 239 234 242 228 118 121 148 155 159 164 168 172 178 183 190
138 139 133 123 117 112 108 171 158 152 148 156 159 166 178 167 141 135 155 168 192 180 184 213 232 228 246 249 238 220 236 223 125 145 142 160 164 168 171 175 183 191 194
133 133 128 131 131 137 157 206 179 171 162 166 153 145 172 138 123 144 187 227 217 188 188 211 221 216 228 237 244 219 199 191 151 163 154 164 173 174 176 181 186 194 199
136 134 137 148 144 159 177 196 189 191 159 149 140 137 157 146 151 194 182 206 216 205 203 204 217 215 222 226 225 222 199 191 184 167 163 164 171 181 186 188 192 196 201
142 141 165 161 148 159 183 198 204 181 122 147 140 140 155 168 181 200 193 180 208 213 199 189 189 212 219 239 249 246 203 183 197 189 175 173 175 179 190 194 194 197 203
143 146 162 147 146 159 176 201 205 146 138 163 127 133 152 177 176 190 205 174 213 195 189 219 145 200 218 231 243 219 214 192 199 195 183 180 179 176 175 185 190 194 200
151 155 163 158 152 164 173 208 193 156 185 169 131 142 166 182 182 190 187 204 221 162 151 102 132 240 227 241 255 225 214 192 202 204 204 189 181 180 173 169 179 190 195
159 161 167 171 166 178 182 200 184 171 196 179 161 160 154 181 187 191 204 203 213 170 158 165 205 241 236 235 280 307 242 218 200 209 209 178 183 173 160 164 169 174 180
165 167 169 173 177 195 191 194 189 191 200 173 183 145 143 181 199 190 191 213 203 167 167 193 191 281 270 215 197 198 242 301 287 212 202 196 185 163 154 164 168 164 164
167 172 178 178 180 195 191 192 194 187 214 175 162 154 161 186 186 233 173 207 214 189 174 191 208 226 247 257 200 195 187 220 283 271 241 197 172 162 160 171 160 155 163
171 171 169 168 177 181 185 193 198 201 211 192 173 159 176 185 190 200 184 222 227 224 175 216 201 249 253 263 255 211 183 174 205 277 276 235 217 184 191 193 154 145 156
171 169 166 165 171 174 186 193 208 205 202 196 176 182 195 186 186 197 179 217 230 209 213 233 252 267 267 271 269 258 223 227 243 223 253 253 250 214 201 196 165 164 164
166 163 161 161 169 176 187 193 202 209 202 197 195 193 208 198 193 195 189 200 216 219 231 209 235 240 261 294 300 284 248 217 240 221 229 237 236 232 203 190 176 178 169